Wind_Speed
20 23 25 29 33 37 38 35 33 31 30 27 26 24 18 15 11 8 6 3 1 3 5 6 7 5 3 8 6 13 17 15 12 12 14 7 11 5 6 10 18 18 15 18 17 18 18
20 22 24 28 33 35 40 38 35 33 31 29 27 23 20 16 15 10 8 4 1 3 5 7 6 7 4 6 7 13 15 10 11 9 13 15 8 11 11 7 6 16 18 15 14 13 12
22 21 23 25 32 36 39 41 38 36 32 30 29 26 21 19 16 11 8 5 1 3 5 6 10 16 19 8 9 14 12 9 9 7 12 12 7 0 6 14 18 19 19 16 8 4 3
26 21 22 25 30 34 37 45 42 38 35 33 32 27 23 20 16 14 9 6 2 4 5 5 6 7 6 1 9 14 12 10 13 12 13 9 7 12 8 12 8 5 3 3 13 2 4
26 25 20 24 27 33 37 46 43 40 37 35 32 28 25 21 18 14 11 6 3 6 7 5 3 4 6 3 9 12 13 6 9 13 13 9 14 10 6 8 8 2 3 4 6 11 2
33 26 21 24 25 33 34 49 46 42 41 36 34 30 26 23 19 17 12 9 7 6 6 7 6 7 3 6 8 9 5 10 3 5 7 7 7 10 10 1 2 4 3 6 7 7 10
31 33 28 21 25 31 36 41 47 46 42 38 36 32 28 24 21 18 17 10 4 4 15 7 7 11 6 1 12 15 10 3 5 4 10 12 12 12 13 9 7 5 7 7 8 6 6
28 35 33 23 21 30 37 39 50 48 44 41 37 35 31 26 23 19 16 3 1 9 12 10 10 10 5 2 3 18 15 4 8 12 12 12 15 9 10 8 7 7 7 8 8 5 4
31 33 33 32 26 25 37 36 54 51 46 42 40 37 32 28 23 18 9 4 14 12 5 5 4 6 5 10 8 12 8 7 17 20 17 15 8 4 4 9 5 7 8 2 1 7 6
31 34 36 38 29 21 37 40 44 51 47 45 43 39 35 30 16 12 7 12 16 4 4 3 2 4 2 4 6 10 7 3 3 9 8 12 9 6 5 11 8 4 7 0 9 8 4
33 35 35 37 36 28 34 44 46 51 49 49 46 42 38 35 14 15 9 18 12 1 3 4 4 3 7 4 3 8 6 11 9 6 4 6 9 10 8 6 11 6 3 5 9 5 6
32 35 32 35 36 38 22 42 43 53 51 51 49 44 41 24 11 14 20 19 7 3 4 5 4 6 5 10 5 4 6 10 7 18 17 10 5 10 5 4 6 3 8 9 4 3 1
34 35 33 33 38 43 24 47 48 55 56 52 52 46 40 23 12 24 26 11 3 3 4 8 7 6 6 4 6 3 3 5 2 5 8 11 12 6 8 1 11 6 5 2 2 0 3
37 37 38 36 39 38 24 49 52 58 58 57 53 49 27 18 24 33 15 6 4 4 7 5 8 10 4 4 4 3 4 5 5 1 6 2 4 9 11 5 4 7 4 1 2 2 3
38 38 38 37 40 45 28 50 52 62 60 61 57 31 18 19 31 28 9 2 5 7 11 13 14 7 4 4 2 4 2 3 3 3 2 5 4 1 5 10 4 2 4 2 3 2 3
40 38 40 40 37 44 36 55 58 60 61 65 32 24 10 24 27 13 4 4 4 6 14 16 6 3 6 9 7 4 4 1 4 1 1 3 5 3 0 3 8 5 4 1 2 2 2
42 41 40 41 43 46 33 60 62 67 68 54 35 7 8 24 18 9 5 4 6 11 12 6 7 6 6 7 6 5 5 6 5 5 2 5 0 5 3 2 1 0 2 5 3 2 2
44 44 46 45 45 45 33 65 67 68 71 49 10 5 13 18 8 4 7 8 6 13 4 5 5 8 10 8 6 4 6 3 8 9 7 3 2 4 3 1 2 1 2 1 3 3 0
44 44 44 42 46 46 55 69 71 73 70 31 7 4 5 2 6 10 8 9 5 10 8 6 5 4 6 8 5 9 8 6 8 6 6 6 2 4 5 4 5 5 3 2 1 1 5
46 48 45 42 45 39 68 75 79 75 59 35 5 5 2 2 7 20 18 12 8 3 6 6 9 8 10 7 5 10 10 7 8 4 5 4 2 3 1 3 6 4 8 8 3 3 5
44 45 42 43 47 38 75 79 76 78 56 34 3 5 6 9 10 19 17 15 18 9 5 8 5 6 10 5 9 7 11 13 8 9 6 3 4 4 1 1 4 7 7 10 8 4 5
51 48 40 48 46 40 74 82 81 75 58 12 6 9 6 13 21 23 11 16 22 9 12 12 9 14 10 8 7 15 16 11 8 10 7 5 4 4 4 4 6 8 10 11 12 7 9
46 46 47 45 42 69 77 77 79 70 52 7 7 21 9 16 19 17 14 20 20 15 2 9 14 15 8 9 6 14 9 9 8 12 10 7 5 4 3 4 5 8 13 13 8 10 7
47 47 43 33 45 73 74 75 79 66 36 22 22 20 6 12 16 18 21 18 21 14 10 9 16 11 7 18 19 15 11 8 9 8 6 6 6 2 2 3 4 4 8 7 9 9 13
43 43 38 30 56 73 74 74 68 62 26 38 25 16 5 11 18 15 21 16 17 12 14 17 8 9 26 20 13 10 5 4 6 7 7 6 6 3 3 6 5 9 8 7 9 6 10
35 35 27 47 63 68 70 63 55 51 35 32 21 16 6 11 15 21 21 24 17 10 11 4 7 25 16 6 4 6 7 7 7 7 7 6 6 4 3 4 4 5 11 6 4 6 11
41 40 43 51 64 66 64 55 57 42 36 42 16 17 9 5 16 24 16 19 12 12 8 9 12 8 7 4 4 4 4 7 8 8 9 10 7 10 7 5 6 6 12 9 4 2 10
45 34 58 60 62 65 59 59 53 43 35 39 16 16 8 4 11 16 8 16 15 13 12 17 9 6 7 6 5 3 3 7 5 6 8 12 9 5 7 6 7 13 13 7 1 7 7
19 48 54 59 62 64 58 58 49 44 36 37 13 15 19 6 10 9 13 11 5 9 12 17 1 16 6 4 3 3 3 5 7 4 10 7 7 5 9 5 1 20 4 15 6 6 7
Wind_Direction
274 257 250 236 229 219 216 215 212 211 208 204 201 201 201 182 191 184 185 183 109 31 15 10 21 43 94 72 40 341 349 348 355 6 21 22 44 63 85 97 92 100 91 86 90 89 85
282 264 249 240 230 225 214 215 210 209 207 204 204 205 194 188 182 188 189 181 144 49 25 22 33 92 89 88 353 347 343 359 8 20 41 44 59 77 75 79 57 106 107 98 84 93 96
279 275 253 244 235 227 219 213 212 208 204 203 202 203 196 191 186 183 186 163 173 53 47 52 90 90 70 76 12 356 4 28 22 49 67 49 52 193 117 96 114 122 114 88 72 118 114
268 276 263 244 235 229 224 213 212 207 202 201 203 198 193 194 181 175 182 168 154 77 52 69 96 82 80 39 9 17 26 58 59 77 80 57 64 78 65 120 139 157 192 222 44 74 29
263 271 272 246 238 229 223 211 210 206 203 199 199 195 193 188 181 177 171 163 114 84 57 105 72 99 99 360 6 15 31 42 82 83 77 62 62 64 139 141 139 149 75 67 98 30 56
252 259 266 254 238 228 220 211 210 205 201 198 195 192 192 186 180 174 166 135 101 94 71 71 84 101 98 59 17 359 5 35 81 123 78 49 67 75 49 236 56 57 99 86 53 45 77
249 253 260 265 240 230 220 216 208 204 200 196 192 190 188 184 179 175 159 133 173 113 50 46 66 85 117 91 36 23 357 36 85 65 95 57 76 58 51 53 71 86 83 90 103 71 66
243 247 255 270 257 231 220 214 206 203 198 194 189 188 184 181 179 176 174 204 125 130 99 70 79 85 69 35 66 23 31 85 97 92 111 92 64 61 59 66 87 93 96 90 102 87 125
242 238 244 251 260 228 223 216 207 199 196 192 187 185 180 178 174 177 192 180 146 127 85 66 66 69 47 65 44 20 15 61 75 85 76 72 49 52 63 55 110 74 26 1 40 125 111
247 243 243 245 256 232 226 217 208 198 194 189 185 180 177 169 161 179 196 180 160 140 112 116 138 73 34 111 65 39 14 352 85 95 77 67 58 64 75 57 357 88 4 168 149 208 67
248 233 237 244 248 258 223 212 206 197 193 190 182 177 174 170 157 178 175 168 156 88 215 145 93 65 75 72 114 41 8 76 81 113 206 84 52 38 56 32 11 57 4 124 153 122 136
243 235 226 246 250 248 255 211 202 196 191 187 179 174 171 172 153 171 157 151 139 198 195 141 137 144 108 62 71 80 80 73 53 88 82 89 78 41 39 41 2 141 119 118 132 147 134
241 234 229 239 243 240 264 204 201 196 188 187 176 172 171 170 170 157 150 152 131 230 168 158 151 148 119 103 82 96 77 68 104 129 110 97 63 95 28 170 58 170 196 153 179 121 8
232 230 230 228 241 242 271 197 196 190 182 181 170 165 167 167 159 154 156 170 181 129 157 129 140 135 117 139 106 132 139 109 74 91 139 91 118 15 7 28 32 51 40 12 91 350 35
230 228 227 234 240 243 253 197 193 186 178 172 161 149 146 152 157 156 169 147 170 175 146 147 146 157 128 134 138 174 99 103 76 23 97 129 112 113 37 39 302 49 63 46 106 99 245
229 224 222 235 237 236 247 194 187 178 176 162 144 143 129 159 159 148 156 163 130 127 138 153 133 199 156 158 163 144 150 121 107 36 205 156 120 202 59 275 46 67 109 176 71 348 332
218 226 218 229 239 232 248 185 178 179 176 150 132 125 152 157 144 182 153 149 129 147 142 166 141 134 147 149 160 147 149 145 168 140 143 150 53 157 230 56 267 206 91 66 92 333 334
213 217 210 217 235 232 226 179 175 174 154 149 123 110 164 158 159 139 159 148 117 151 158 115 106 105 153 149 149 139 154 113 160 158 152 88 117 145 120 65 320 87 147 263 267 162 140
210 213 212 219 220 226 191 174 178 169 155 146 108 103 179 286 152 167 139 123 140 158 153 144 120 124 149 153 120 138 130 130 155 160 158 167 154 140 169 188 201 237 183 127 118 29 196
206 207 207 220 220 246 180 171 173 167 162 130 113 121 116 254 182 162 154 155 134 120 119 107 116 120 135 137 134 153 137 154 168 155 109 159 182 260 265 87 132 173 194 187 237 215 156
202 203 214 218 221 244 172 174 174 162 156 137 137 138 159 175 180 165 163 164 147 147 141 154 139 167 153 137 136 145 139 139 159 147 156 235 182 188 187 205 211 221 208 198 210 221 230
189 203 207 211 235 213 166 171 168 165 157 132 123 146 186 148 155 160 140 182 166 141 157 175 167 165 161 155 175 172 160 165 159 178 183 199 167 193 226 212 228 240 229 220 223 228 253
185 195 202 217 226 171 167 171 164 162 167 131 116 132 130 144 164 165 177 167 172 142 122 183 160 153 169 143 124 153 154 136 155 169 177 183 176 185 236 192 298 269 230 216 203 202 221
180 189 200 214 189 171 171 171 170 167 174 152 149 136 114 163 168 174 165 160 163 169 136 148 157 151 115 116 109 106 106 107 148 149 171 183 191 202 255 202 241 106 150 206 230 233 214
179 186 200 199 177 166 170 169 170 174 168 141 153 154 120 152 168 156 163 149 131 122 113 144 136 128 149 134 115 117 131 158 170 180 193 213 194 213 231 229 314 205 209 200 206 222 212
179 190 199 175 167 165 167 163 161 166 163 145 146 131 110 125 186 162 149 155 149 128 124 115 133 147 154 132 148 170 177 171 171 175 210 193 235 228 210 260 249 101 148 166 185 247 186
177 188 178 170 159 157 158 159 161 155 161 150 119 131 112 104 160 160 164 160 150 142 125 132 151 160 204 165 164 169 163 174 171 188 182 190 204 219 221 266 280 186 154 159 221 108 177
173 182 166 161 152 152 155 167 163 160 154 141 115 110 96 90 151 180 153 153 150 155 150 154 139 201 178 188 191 165 168 185 184 193 176 183 186 192 203 228 256 158 150 204 149 151 173
181 162 163 153 150 150 156 159 152 153 148 142 80 99 109 93 130 123 127 155 168 157 130 173 98 160 163 154 196 154 156 163 189 203 195 204 209 187 206 220 171 181 178 203 185 182 193
Height
789 790 791 794 798 802 808 812 817 823 828 832 836 839 843 841 846 847 849 849 849 847 846 846 844 843 844 846 855 855 851 848 845 843 838 835 830 829 835 837 841 854 864 868 873 874 877
784 785 787 790 793 797 802 808 813 819 824 829 833 838 839 842 843 846 848 849 848 847 846 846 844 843 844 852 858 855 852 849 846 844 842 839 839 835 841 844 844 854 864 872 875 877 879
781 781 781 784 788 793 796 802 809 815 820 826 829 837 839 840 842 845 849 848 849 847 847 847 846 845 849 860 860 856 853 850 847 846 845 846 843 839 842 852 854 860 864 869 876 878 881
776 775 776 779 783 787 790 796 804 811 816 822 829 834 837 840 842 844 847 848 849 847 848 847 847 847 856 861 860 857 854 852 850 849 849 850 847 846 847 853 856 858 855 855 881 875 881
770 772 771 774 778 781 785 791 798 806 813 817 825 831 835 839 841 844 846 848 848 848 849 847 849 847 858 861 860 859 856 854 853 853 852 851 850 850 852 851 854 856 854 863 878 880 877
766 767 768 769 771 775 780 784 792 801 808 814 822 828 832 837 840 843 846 847 850 849 850 849 851 850 861 864 862 860 858 857 855 853 851 852 849 851 853 849 854 862 861 868 877 889 883
756 758 763 762 765 769 775 780 786 795 802 810 818 824 830 836 839 842 844 848 852 851 852 855 857 856 861 863 863 861 859 858 854 854 857 852 857 869 872 869 868 868 869 877 887 894 893
752 754 754 755 759 764 769 774 780 789 797 805 813 821 828 833 838 841 844 844 842 846 858 861 861 862 864 863 861 863 860 858 854 860 860 860 873 876 875 873 873 871 874 885 890 895 892
746 749 749 752 754 757 762 768 772 782 791 800 809 819 825 832 837 841 842 842 843 845 852 865 865 863 865 865 869 870 869 865 861 863 865 870 884 880 877 878 875 879 886 888 885 896 893
736 737 741 748 749 750 755 761 767 776 786 796 806 814 823 829 841 839 841 842 842 845 854 869 864 866 868 866 872 876 877 873 872 874 874 878 882 881 880 885 880 879 893 892 888 885 882
729 735 736 739 740 745 749 757 762 769 781 790 802 810 818 825 828 835 838 840 842 846 851 870 866 870 868 867 873 877 880 872 873 876 874 890 889 885 887 893 888 894 893 886 886 886 891
721 722 730 729 734 737 741 747 756 763 775 786 797 805 816 823 827 833 835 840 845 852 857 868 866 867 869 871 876 877 877 877 877 874 879 887 892 894 895 894 892 894 888 886 884 886 894
711 714 718 723 730 735 736 741 753 758 770 782 793 803 816 820 822 828 835 840 851 844 860 867 864 866 869 875 880 882 883 881 878 883 882 883 891 896 898 889 883 887 883 893 891 891 895
706 709 711 719 721 724 727 735 746 751 763 776 790 802 811 815 822 827 834 838 838 847 845 855 859 866 868 873 883 885 882 881 891 884 883 887 891 898 901 901 896 895 888 894 891 889 885
695 700 702 706 711 717 725 729 740 746 756 771 784 800 811 814 821 825 829 844 837 833 841 851 859 860 871 877 876 881 883 884 896 909 893 905 905 907 906 905 907 895 895 904 909 909 899
682 692 696 697 703 711 718 723 735 737 747 763 779 798 812 816 820 825 835 841 833 835 837 843 847 856 861 870 875 883 883 894 898 900 902 909 912 911 906 906 906 899 906 898 899 896 892
675 677 686 689 695 703 710 715 726 733 744 758 776 799 814 818 822 826 837 831 834 836 837 843 851 860 859 870 871 876 882 892 893 899 898 908 906 907 906 906 917 910 911 927 925 927 901
664 672 684 689 688 694 702 707 717 726 737 757 770 795 812 816 819 829 829 825 832 838 842 845 846 852 858 867 873 875 878 880 891 892 891 896 903 894 906 908 909 906 923 917 902 918 930
651 658 664 675 682 690 690 697 710 722 731 744 772 805 814 817 820 819 825 830 832 836 836 842 849 851 859 866 879 876 880 889 891 889 892 896 902 904 902 908 908 902 911 924 933 924 914
637 647 657 666 673 679 680 689 702 715 728 735 770 804 819 819 802 803 812 824 833 837 839 842 851 853 858 866 870 875 881 890 892 890 899 897 901 902 880 885 890 913 906 914 916 906 910
626 637 644 654 663 668 670 685 696 707 718 729 755 780 789 804 801 799 806 817 823 833 838 840 849 846 851 873 868 871 878 886 891 897 894 893 901 892 890 891 892 895 892 906 919 905 903
631 633 639 650 654 660 666 681 686 703 716 730 748 758 783 789 793 797 813 813 814 830 832 838 838 844 852 866 861 870 873 876 878 890 891 892 888 890 892 892 891 890 887 890 897 908 913
615 628 637 645 648 650 661 676 685 700 718 724 744 751 763 779 787 793 799 804 810 824 839 830 834 846 855 851 856 861 867 871 874 882 886 889 888 891 883 890 897 894 888 879 885 889 891
611 626 636 639 638 646 662 677 690 702 712 721 736 742 763 780 782 783 794 805 812 815 828 837 839 843 859 861 864 870 875 879 881 882 884 889 887 891 884 889 890 875 872 876 876 876 880
605 613 621 629 637 644 661 678 691 702 714 719 733 738 756 774 777 791 796 802 817 826 831 836 843 847 856 856 864 873 881 883 881 882 885 884 885 889 889 874 861 867 872 877 876 868 866
592 607 619 626 636 647 663 678 689 708 712 723 734 738 751 766 775 784 793 805 812 822 837 849 852 854 853 853 861 864 866 864 875 882 886 888 888 890 891 882 863 851 860 868 872 865 861
601 613 618 629 637 650 665 679 691 703 716 721 730 737 747 766 774 779 787 795 803 815 829 847 853 857 857 854 858 857 859 858 867 871 882 884 887 895 890 886 860 851 862 871 875 856 857
602 611 622 629 638 651 666 681 692 706 710 715 733 738 745 769 785 788 792 797 803 811 821 839 849 854 852 855 852 855 852 861 860 856 864 868 874 881 879 885 871 852 866 865 851 853 855
600 610 622 631 641 656 669 685 699 705 713 718 731 745 751 764 782 793 796 800 802 805 813 832 829 836 845 847 856 851 855 862 853 856 858 861 853 856 858 853 848 851 845 851 850 851 856